User: anonymous   Login
Location: Unspecified
(0.0000°N, 0.0000°E)
Time: 17:24:00
(UTC+00:00)
Language:

Oscar 14 - Orbit

View from above orbital plane
View from above orbital plane
View from above satellite
View from above satellite

Ground track
Ground track

The orbit data is extracted from the following two-line orbital elements,

1 20437U 90005B   18116.15768220 -.00000005  00000-0  14729-4 0  9991
2 20437  98.7008  65.2246 0010304 342.9191 133.9612 14.32287624476003
Epoch (UTC): 26 April 2018 03:47:03
Eccentricity: 0.0010304
inclination: 98.7008°
perigee height: 777 km
apogee height: 791 km
right ascension of ascending node: 65.2246°
argument of perigee: 342.9191°
revolutions per day: 14.32287624
mean anomaly at epoch: 133.9612°
orbit number at epoch: 47600

The dashed part of the orbit path shows where the satellite is in the earth's shadow,  

DLR